Location: Newark
(51.0500°N, 12.4500°E)
Time: 14:28:20
(UTC+00:00)

Tiros 1 - Pass Details

Date: 24 February 2020
Orbit: 630 x 664 km, 48.4° (Epoch: 06 April)

Event Time Altitude Azimuth Distance (km) Brightness Sun altitude
Rises 01:50:49 0° 241° (WSW) 2,926 - -38.8°
Reaches altitude 10° 01:53:12 10° 235° (SW) 2,015 - -38.6°
Maximum altitude 01:57:38 47° 162° (SSE) 840 - -38.0°
Exits shadow 02:01:56 11° 90° (E) 1,962 10.1 -37.5°
Drops below altitude 10° 02:02:04 10° 89° (E) 2,010 10.2 -37.5°
Sets 02:04:26 0° 84° (E) 2,918 11.2 -37.2°
